Total_Precipitation_Accumulation
0.21 0.27 0.36 0.48 0.55 0.56 0.63 0.77 0.94 1.08 1.13 1.18 1.15 1.10 1.17 1.22 1.18 1.14 1.30 1.46 1.51 1.49 1.42 1.29 1.22 1.14 1.07 1.01 0.95 0.84 0.71 0.62 0.55 0.57 0.55 0.50 0.45 0.44 0.38 0.32 0.29 0.28 0.27
0.25 0.30 0.36 0.45 0.50 0.56 0.60 0.71 0.89 1.02 1.04 1.05 1.11 1.09 1.12 1.16 1.21 1.17 1.19 1.34 1.50 1.63 1.69 1.58 1.43 1.31 1.21 1.14 1.06 0.98 0.94 0.82 0.69 0.64 0.69 0.68 0.62 0.51 0.42 0.37 0.31 0.30 0.30
0.26 0.28 0.32 0.39 0.45 0.53 0.56 0.59 0.78 1.01 1.07 1.08 1.19 1.23 1.32 1.36 1.35 1.28 1.19 1.22 1.30 1.37 1.46 1.51 1.42 1.41 1.34 1.25 1.15 1.06 1.03 0.99 0.84 0.70 0.80 0.91 0.78 0.56 0.46 0.42 0.37 0.33 0.32
0.26 0.30 0.31 0.39 0.43 0.50 0.56 0.57 0.68 0.89 1.13 1.14 1.15 1.18 1.23 1.27 1.28 1.22 1.16 1.16 1.25 1.30 1.29 1.35 1.37 1.28 1.23 1.17 1.11 1.07 1.00 1.02 0.97 0.81 0.71 0.71 0.72 0.76 0.62 0.45 0.42 0.41 0.38
0.28 0.32 0.35 0.42 0.48 0.56 0.63 0.61 0.69 0.81 1.03 1.11 1.08 1.11 1.14 1.17 1.28 1.31 1.21 1.20 1.26 1.33 1.35 1.32 1.32 1.34 1.22 1.08 1.01 1.02 1.05 1.03 0.99 0.89 0.77 0.68 0.59 0.60 0.73 0.59 0.49 0.53 0.50
0.30 0.34 0.38 0.47 0.55 0.64 0.74 0.70 0.73 0.75 0.89 1.10 1.09 1.02 1.05 1.07 1.16 1.29 1.36 1.33 1.32 1.33 1.35 1.38 1.32 1.29 1.31 1.22 1.08 1.00 1.01 1.00 0.97 0.95 0.88 0.82 0.79 0.67 0.69 0.66 0.52 0.51 0.50
0.29 0.33 0.40 0.51 0.54 0.62 0.72 0.72 0.72 0.75 0.78 0.96 1.06 1.01 0.99 1.00 1.02 1.13 1.24 1.31 1.33 1.29 1.28 1.33 1.35 1.30 1.26 1.24 1.17 1.11 1.06 1.02 1.02 1.01 0.96 0.89 0.83 0.77 0.82 0.87 0.73 0.59 0.51
0.24 0.29 0.35 0.44 0.51 0.54 0.64 0.71 0.72 0.75 0.75 0.85 1.01 1.06 1.05 1.04 0.97 1.03 1.14 1.21 1.21 1.19 1.16 1.18 1.19 1.18 1.15 1.14 1.14 1.13 1.06 1.05 1.07 1.05 1.03 0.99 0.88 0.86 0.94 1.05 1.12 0.99 0.69
0.26 0.30 0.34 0.38 0.42 0.49 0.55 0.62 0.73 0.78 0.79 0.79 0.94 1.12 1.20 1.11 1.00 0.97 1.05 1.10 1.12 1.14 1.18 1.17 1.13 1.04 1.02 1.01 0.99 1.01 0.99 1.00 1.02 1.04 1.06 1.06 0.96 0.94 0.96 1.03 1.22 1.47 1.26
0.29 0.33 0.35 0.39 0.41 0.43 0.49 0.54 0.67 0.76 0.81 0.78 0.86 1.02 1.24 1.28 1.15 1.09 1.01 1.03 1.04 1.06 1.09 1.14 1.14 1.08 0.99 0.98 0.97 0.91 0.86 0.91 0.94 0.96 1.03 1.05 1.00 0.96 0.94 1.01 1.07 1.20 1.37
0.25 0.28 0.33 0.39 0.43 0.43 0.49 0.54 0.61 0.69 0.75 0.73 0.78 0.89 1.07 1.29 1.32 1.22 1.10 0.98 0.98 0.98 0.97 1.01 1.05 1.05 1.02 0.99 1.03 0.98 0.89 0.89 0.89 0.91 0.95 0.95 0.98 1.02 0.97 0.99 1.03 1.03 1.10
0.22 0.24 0.29 0.37 0.41 0.43 0.46 0.51 0.57 0.63 0.70 0.70 0.73 0.82 0.92 1.10 1.32 1.27 1.13 1.01 0.96 0.96 0.98 0.97 1.01 1.02 1.05 1.04 1.04 0.99 0.92 0.91 0.89 0.89 0.88 0.88 0.90 0.96 0.93 0.93 0.93 0.91 0.88
0.21 0.24 0.30 0.34 0.37 0.43 0.47 0.48 0.53 0.60 0.64 0.69 0.74 0.76 0.85 0.94 1.05 1.20 1.16 1.06 0.99 0.96 0.97 0.98 1.00 1.06 1.09 1.08 1.01 1.00 0.94 0.89 0.89 0.90 0.90 0.87 0.90 0.94 0.90 0.92 0.88 0.80 0.75
0.21 0.26 0.31 0.32 0.35 0.42 0.50 0.50 0.54 0.59 0.57 0.63 0.70 0.70 0.72 0.79 0.85 0.97 1.15 1.17 1.08 0.98 0.91 0.91 0.96 1.06 1.23 1.26 1.18 1.20 1.08 0.95 0.88 0.84 0.83 0.87 0.97 0.98 0.97 1.00 0.90 0.84 0.86
0.21 0.27 0.31 0.33 0.37 0.45 0.53 0.57 0.55 0.52 0.49 0.52 0.60 0.66 0.72 0.79 0.82 0.82 0.95 1.14 1.11 0.97 0.88 0.85 0.88 0.98 1.33 1.71 1.69 1.61 1.36 1.06 0.88 0.79 0.79 0.86 1.00 1.05 1.19 1.29 1.16 1.13 1.22
0.25 0.27 0.31 0.32 0.39 0.45 0.54 0.64 0.58 0.54 0.47 0.47 0.54 0.61 0.71 0.84 0.86 0.82 0.86 0.98 1.07 1.02 0.93 0.87 0.85 0.88 1.16 1.76 1.90 1.60 1.20 1.02 0.91 0.84 0.79 0.80 0.92 0.96 1.06 1.21 1.28 1.35 1.47
0.31 0.31 0.32 0.36 0.44 0.47 0.54 0.62 0.61 0.57 0.50 0.49 0.53 0.59 0.64 0.78 0.85 0.86 0.90 0.95 1.01 1.08 1.08 0.95 0.85 0.82 0.97 1.56 1.70 1.41 1.07 0.93 0.88 0.83 0.81 0.80 0.86 0.93 0.93 1.01 1.04 1.07 1.22
0.33 0.33 0.36 0.41 0.42 0.46 0.49 0.54 0.56 0.55 0.54 0.53 0.58 0.62 0.61 0.66 0.79 0.90 0.91 0.92 0.95 0.99 1.05 1.02 0.93 0.85 0.89 1.39 1.55 1.31 1.04 0.92 0.84 0.78 0.78 0.78 0.80 0.91 1.11 1.08 1.02 0.92 0.94
0.32 0.34 0.37 0.40 0.40 0.41 0.43 0.49 0.54 0.53 0.56 0.61 0.64 0.64 0.59 0.60 0.71 0.80 0.88 0.91 0.92 0.90 0.92 0.94 0.92 0.88 0.85 1.16 1.41 1.27 1.01 0.95 0.87 0.77 0.76 0.77 0.77 0.98 1.25 1.20 1.05 0.88 0.80
0.28 0.32 0.35 0.33 0.35 0.38 0.39 0.47 0.53 0.48 0.53 0.58 0.65 0.60 0.54 0.52 0.53 0.63 0.79 0.87 0.89 0.86 0.86 0.87 0.88 0.82 0.75 0.96 1.22 1.24 1.00 0.93 0.89 0.84 0.78 0.86 0.95 1.10 1.25 1.15 1.11 1.18 0.97
0.24 0.27 0.30 0.31 0.37 0.40 0.38 0.43 0.51 0.51 0.53 0.57 0.64 0.58 0.53 0.53 0.54 0.60 0.73 0.82 0.91 0.93 0.87 0.83 0.84 0.80 0.77 0.87 1.05 1.25 1.06 0.92 0.88 0.88 0.83 0.80 1.00 1.08 1.15 1.20 1.16 1.38 1.29
0.20 0.20 0.24 0.27 0.33 0.36 0.37 0.43 0.51 0.53 0.57 0.59 0.57 0.57 0.58 0.57 0.59 0.62 0.71 0.82 0.92 0.98 0.92 0.83 0.81 0.79 0.79 0.87 1.01 1.19 1.20 1.09 0.91 0.83 0.73 0.76 0.98 1.05 1.14 1.12 1.19 1.31 1.28
0.21 0.21 0.23 0.25 0.30 0.34 0.37 0.46 0.51 0.50 0.55 0.55 0.54 0.55 0.59 0.58 0.61 0.66 0.73 0.82 0.91 0.95 0.93 0.84 0.79 0.77 0.74 0.86 1.08 1.05 1.10 1.14 0.96 0.83 0.91 0.97 1.06 1.06 0.98 1.02 1.11 1.10 1.05
0.22 0.21 0.23 0.25 0.32 0.35 0.37 0.44 0.48 0.45 0.45 0.47 0.51 0.51 0.57 0.62 0.65 0.70 0.73 0.79 0.89 0.97 0.88 0.80 0.75 0.71 0.74 0.92 1.08 1.03 1.01 1.08 1.06 0.99 1.03 1.10 1.09 0.98 0.87 0.89 0.90 0.86 0.94
0.25 0.24 0.25 0.27 0.33 0.38 0.41 0.45 0.44 0.42 0.41 0.42 0.50 0.56 0.60 0.66 0.69 0.71 0.75 0.80 0.83 0.98 0.94 0.81 0.79 0.81 0.91 1.06 1.19 1.16 1.09 1.08 1.09 1.21 1.27 1.18 1.08 1.02 0.89 0.77 0.70 0.74 0.88
0.29 0.27 0.27 0.29 0.35 0.40 0.48 0.48 0.42 0.40 0.42 0.45 0.49 0.57 0.63 0.65 0.66 0.65 0.69 0.80 0.84 0.89 0.87 0.82 0.82 0.80 0.94 1.07 1.12 1.19 1.21 1.23 1.31 1.36 1.28 1.06 0.92 0.88 0.83 0.79 0.75 0.71 0.74